Tracking 29892 objects as of 21-Nov-2024
HD Live streaming from Space Station
objects crossing your sky now

CARTOSAT-1

Track CARTOSAT-1 now!
10-day predictions
CARTOSAT-1 is classified as:


NORAD ID: 28649
Int'l Code: 2005-017A
Perigee: 608.8 km
Apogee: 611.7 km
Inclination: 97.6 °
Period: 96.8 minutes
Semi major axis: 6981 km
RCS: 4.7551 m2 (large)
Launch date: May 5, 2005
Source: India (IND)
Launch site: SRIHARIKOTA (SRI)

Remote sensing and mapping, land use, forest cover, river flow assessments.
Your satellite tracking list
Your tracking list is empty




NASA's NSSDC Master Catalog

Two Line Element Set (TLE):
1 28649U 05017A   24325.93790720  .00003111  00000-0  34171-3 0  9990
2 28649  97.5948   2.9112 0002106 121.2733 238.8691 14.88340848 58464
Source of the keplerian elements: AFSPC